,,Stat6,,Stat2,,Stat8,,Stat9,,Stat10,,Wind1,,Wind1,
time,status,PA1M_AVG,status,PR1M_SUM,status,RH1M_AVG,status,SR1M_AVG,status,TA1M_AVG,status,W1dAve1m,status,W1sAve1m,
2004-01-11, 00:00:00,VALID,918.891,VALID,0,VALID,99.7815,VALID,-0.0509425,VALID,21.2687,VALID,216,VALID,0.144804,
2004-01-11, 00:01:00,VALID,918.894,VALID,0,VALID,99.7752,VALID,-0.0509425,VALID,21.2798,VALID,207,VALID,0.0616122,
2004-01-11, 00:02:00,VALID,918.889,VALID,0,VALID,99.7726,VALID,-0.0509425,VALID,21.273,VALID,207,VALID,0.0766369,
2004-01-11, 00:03:00,VALID,918.888,VALID,0,VALID,99.7854,VALID,-0.0509425,VALID,21.279,VALID,207,VALID,0.0402058,
2004-01-11, 00:04:00,VALID,918.897,VALID,0,VALID,99.8095,VALID,0,VALID,21.3153,VALID,207,VALID,0.0429688,
2004-01-11, 00:05:00,VALID,918.875,VALID,0,VALID,99.7955,VALID,-0.0339617,VALID,21.3016,VALID,207,VALID,0.0141715,
2004-01-11, 00:06:00,VALID,918.882,VALID,0,VALID,99.7625,VALID,-0.0169808,VALID,21.2792,VALID,229,VALID,0.390439,
2004-01-11, 00:07:00,VALID,918.865,VALID,0,VALID,99.7714,VALID,-0.0679233,VALID,21.2728,VALID,241,VALID,0.328658,
2004-01-11, 00:08:00,VALID,918.854,VALID,0,VALID,99.7828,VALID,-0.0509425,VALID,21.2857,VALID,209,VALID,0.507457,
2004-01-11, 00:09:00,VALID,918.836,VALID,0,VALID,99.7408,VALID,-0.0679233,VALID,21.2539,VALID,248,VALID,1.02496,
2004-01-11, 00:10:00,VALID,918.821,VALID,0,VALID,99.6684,VALID,-0.0849042,VALID,21.2154,VALID,248,VALID,0.755145,
2004-01-11, 00:11:00,VALID,918.816,VALID,0,VALID,99.6811,VALID,-0.0679233,VALID,21.2084,VALID,238,VALID,0.395579,
2004-01-11, 00:12:00,VALID,918.802,VALID,0,VALID,99.6976,VALID,-0.0509425,VALID,21.2092,VALID,199,VALID,0.437872,
2004-01-11, 00:13:00,VALID,918.78,VALID,0,VALID,99.7332,VALID,-0.0679233,VALID,21.2313,VALID,198,VALID,0.112351,
2004-01-11, 00:14:00,VALID,918.764,VALID,0,VALID,99.7459,VALID,-0.0849042,VALID,21.2442,VALID,199,VALID,0.207485,
2004-01-11, 00:15:00,VALID,918.736,VALID,0,VALID,99.7332,VALID,-0.0339617,VALID,21.238,VALID,199,VALID,0.184956,
2004-01-11, 00:16:00,VALID,918.716,VALID,0,VALID,99.7269,VALID,-0.101885,VALID,21.2284,VALID,197,VALID,0.0643169,
2004-01-11, 00:17:00,VALID,918.703,VALID,0,VALID,99.7129,VALID,-0.0849042,VALID,21.2249,VALID,156,VALID,0.351753,
2004-01-11, 00:18:00,VALID,918.678,VALID,0,VALID,99.69,VALID,-0.0679233,VALID,21.2152,VALID,108,VALID,0.603561,
2004-01-11, 00:19:00,VALID,918.66,VALID,0,VALID,99.6747,VALID,-0.0849042,VALID,21.199,VALID,107,VALID,0.680778,
2004-01-11, 00:20:00,VALID,918.629,VALID,0,VALID,99.676,VALID,-0.0679233,VALID,21.1858,VALID,100,VALID,0.516006,
2004-01-11, 00:21:00,VALID,918.602,VALID,0,VALID,99.7002,VALID,-0.0679233,VALID,21.2022,VALID,118,VALID,0.596946,
2004-01-11, 00:22:00,VALID,918.569,VALID,0,VALID,99.6938,VALID,-0.0509425,VALID,21.199,VALID,119,VALID,0.774182,
2004-01-11, 00:23:00,VALID,918.548,VALID,0,VALID,99.6887,VALID,-0.0339617,VALID,21.1856,VALID,126,VALID,0.773074,
2004-01-11, 00:24:00,VALID,918.5,VALID,0,VALID,99.6938,VALID,-0.0509425,VALID,21.1958,VALID,94,VALID,0.711483,
2004-01-11, 00:25:00,VALID,918.464,VALID,0,VALID,99.6951,VALID,-0.0509425,VALID,21.1958,VALID,89,VALID,0.511719,
2004-01-11, 00:26:00,VALID,918.416,VALID,0,VALID,99.6862,VALID,-0.0679233,VALID,21.1961,VALID,131,VALID,0.515451,
2004-01-11, 00:27:00,VALID,918.391,VALID,0,VALID,99.6874,VALID,0.0169808,VALID,21.1823,VALID,132,VALID,0.785657,
2004-01-11, 00:28:00,VALID,918.365,VALID,0,VALID,99.676,VALID,0.0509425,VALID,21.1683,VALID,140,VALID,0.554506,
2004-01-11, 00:29:00,VALID,918.356,VALID,0,VALID,99.6811,VALID,0.0679233,VALID,21.1455,VALID,164,VALID,0.406822,
2004-01-11, 00:30:00,VALID,918.356,VALID,0,VALID,99.6874,VALID,0.0339617,VALID,21.149,VALID,162,VALID,0.196584,
2004-01-11, 00:31:00,VALID,918.385,VALID,0,VALID,99.6976,VALID,0.0509425,VALID,21.1522,VALID,171,VALID,0.246449,
2004-01-11, 00:32:00,VALID,918.41,VALID,0,VALID,99.6824,VALID,0.101885,VALID,21.1296,VALID,224,VALID,0.568132,
2004-01-11, 00:33:00,VALID,918.445,VALID,0,VALID,99.6836,VALID,0.0679233,VALID,21.1266,VALID,231,VALID,0.488086,
2004-01-11, 00:34:00,VALID,918.476,VALID,0,VALID,99.6989,VALID,0.0509425,VALID,21.1194,VALID,236,VALID,0.285764,
2004-01-11, 00:35:00,VALID,918.502,VALID,0,VALID,99.7256,VALID,0.0339617,VALID,21.1226,VALID,246,VALID,0.347842,
2004-01-11, 00:36:00,VALID,918.514,VALID,0,VALID,99.7599,VALID,0,VALID,21.1492,VALID,251,VALID,0.0163517,
2004-01-11, 00:37:00,VALID,918.507,VALID,0,VALID,99.8019,VALID,0.0509425,VALID,21.1753,VALID,251,VALID,0.0585029,
2004-01-11, 00:38:00,VALID,918.492,VALID,0,VALID,99.8006,VALID,0.0339617,VALID,21.1589,VALID,251,VALID,0.203506,
2004-01-11, 00:39:00,VALID,918.473,VALID,0,VALID,99.7866,VALID,0.0679233,VALID,21.1363,VALID,251,VALID,0.0816761,
2004-01-11, 00:40:00,VALID,918.446,VALID,0,VALID,99.7943,VALID,0.0169808,VALID,21.1401,VALID,251,VALID,0.0886628,
2004-01-11, 00:41:00,VALID,918.424,VALID,0,VALID,99.7879,VALID,0.0339617,VALID,21.1169,VALID,251,VALID,0.385671,
2004-01-11, 00:42:00,VALID,918.399,VALID,0,VALID,99.7968,VALID,0.0339617,VALID,21.101,VALID,256,VALID,0.563802,
2004-01-11, 00:43:00,VALID,918.362,VALID,0,VALID,99.7892,VALID,-0.0169808,VALID,21.0889,VALID,232,VALID,0.427973,
2004-01-11, 00:44:00,VALID,918.346,VALID,0,VALID,99.8032,VALID,0,VALID,21.0755,VALID,232,VALID,0.416061,
2004-01-11, 00:45:00,VALID,918.326,VALID,0,VALID,99.8197,VALID,-0.0509425,VALID,21.0895,VALID,202,VALID,0.39668,
2004-01-11, 00:46:00,VALID,918.31,VALID,0,VALID,99.8324,VALID,0,VALID,21.0695,VALID,190,VALID,0.305618,
2004-01-11, 00:47:00,VALID,918.295,VALID,0,VALID,99.8426,VALID,0,VALID,21.0792,VALID,190,VALID,0.246354,
2004-01-11, 00:48:00,VALID,918.295,VALID,0,VALID,99.84,VALID,-0.0169808,VALID,21.0628,VALID,190,VALID,0.432231,
2004-01-11, 00:49:00,VALID,918.288,VALID,0,VALID,99.8388,VALID,0,VALID,21.0596,VALID,189,VALID,0.301829,
2004-01-11, 00:50:00,VALID,918.302,VALID,0,VALID,99.8413,VALID,0,VALID,21.0364,VALID,193,VALID,0.328125,
2004-01-11, 00:51:00,VALID,918.318,VALID,0,VALID,99.8502,VALID,-0.0169808,VALID,21.0364,VALID,196,VALID,0.0583984,
2004-01-11, 00:52:00,VALID,918.348,VALID,0,VALID,99.8578,VALID,-0.0169808,VALID,21.0402,VALID,196,VALID,0,
2004-01-11, 00:53:00,VALID,918.371,VALID,0,VALID,99.8667,VALID,0,VALID,21.044,VALID,196,VALID,0.226758,
2004-01-11, 00:54:00,VALID,918.397,VALID,0,VALID,99.8667,VALID,-0.0339617,VALID,21.0138,VALID,196,VALID,0.0723586,
2004-01-11, 00:55:00,VALID,918.411,VALID,0,VALID,99.8731,VALID,0,VALID,21.034,VALID,196,VALID,0.0718006,
2004-01-11, 00:56:00,VALID,918.402,VALID,0,VALID,99.8756,VALID,-0.0169808,VALID,21.0278,VALID,196,VALID,0.283381,
2004-01-11, 00:57:00,VALID,918.415,VALID,0,VALID,99.8731,VALID,-0.0169808,VALID,21.041,VALID,197,VALID,0.0239826,
2004-01-11, 00:58:00,VALID,918.402,VALID,0,VALID,99.8845,VALID,-0.0169808,VALID,21.0442,VALID,197,VALID,0,
2004-01-11, 00:59:00,VALID,918.383,VALID,0,VALID,99.8985,VALID,-0.0339617,VALID,21.0437,VALID,197,VALID,0,
2004-01-11, 01:00:00,VALID,918.374,VALID,0,VALID,99.9151,VALID,-0.0169808,VALID,21.0434,VALID,197,VALID,0.0258557,
2004-01-11, 01:01:00,VALID,918.366,VALID,0,VALID,99.9049,VALID,-0.0339617,VALID,21.0663,VALID,197,VALID,0.00203804,
2004-01-11, 01:02:00,VALID,918.345,VALID,0,VALID,99.91,VALID,-0.0169808,VALID,21.0795,VALID,197,VALID,0.00114329,
2004-01-11, 01:03:00,VALID,918.342,VALID,0,VALID,99.9011,VALID,-0.0169808,VALID,21.0763,VALID,197,VALID,0,
2004-01-11, 01:04:00,VALID,918.327,VALID,0,VALID,99.8973,VALID,-0.0169808,VALID,21.0763,VALID,197,VALID,0.0114462,
2004-01-11, 01:05:00,VALID,918.33,VALID,0,VALID,99.8731,VALID,-0.0169808,VALID,21.0496,VALID,197,VALID,0.138194,
2004-01-11, 01:06:00,VALID,918.324,VALID,0,VALID,99.8489,VALID,0,VALID,21.0507,VALID,197,VALID,0.242001,
2004-01-11, 01:07:00,VALID,918.334,VALID,0,VALID,99.8489,VALID,-0.0339617,VALID,21.0337,VALID,197,VALID,0.110899,
2004-01-11, 01:08:00,VALID,918.337,VALID,0,VALID,99.854,VALID,-0.0339617,VALID,21.0437,VALID,197,VALID,0.189631,
2004-01-11, 01:09:00,VALID,918.346,VALID,0,VALID,99.8616,VALID,-0.0679233,VALID,21.044,VALID,197,VALID,0.200707,
2004-01-11, 01:10:00,VALID,918.37,VALID,0,VALID,99.8438,VALID,-0.0509425,VALID,21.0345,VALID,197,VALID,0.187881,
2004-01-11, 01:11:00,VALID,918.363,VALID,0,VALID,99.8222,VALID,-0.0169808,VALID,21.0445,VALID,197,VALID,0.0149148,
2004-01-11, 01:12:00,VALID,918.38,VALID,0,VALID,99.8171,VALID,-0.0679233,VALID,21.0214,VALID,197,VALID,0.0679506,
2004-01-11, 01:13:00,VALID,918.376,VALID,0,VALID,99.7866,VALID,-0.0169808,VALID,21.0049,VALID,197,VALID,0.129688,
2004-01-11, 01:14:00,VALID,918.376,VALID,0,VALID,99.7892,VALID,-0.0169808,VALID,21.0049,VALID,197,VALID,0.05,
2004-01-11, 01:15:00,VALID,918.393,VALID,0,VALID,99.7765,VALID,-0.0169808,VALID,21.0022,VALID,197,VALID,0,
2004-01-11, 01:16:00,VALID,918.376,VALID,0,VALID,99.7739,VALID,-0.0339617,VALID,20.9987,VALID,197,VALID,0.00117188,
2004-01-11, 01:17:00,VALID,918.357,VALID,0,VALID,99.7739,VALID,-0.0169808,VALID,20.9955,VALID,197,VALID,0,
2004-01-11, 01:18:00,VALID,918.347,VALID,0,VALID,99.7803,VALID,-0.0339617,VALID,21.0022,VALID,197,VALID,0,
2004-01-11, 01:19:00,VALID,918.332,VALID,0,VALID,99.7421,VALID,-0.0679233,VALID,20.9761,VALID,197,VALID,0,
2004-01-11, 01:20:00,VALID,918.317,VALID,0,VALID,99.7408,VALID,-0.0679233,VALID,20.9732,VALID,175,VALID,0.230015,
2004-01-11, 01:21:00,VALID,918.309,VALID,0,VALID,99.7523,VALID,-0.0509425,VALID,20.9764,VALID,75,VALID,0.49375,
2004-01-11, 01:22:00,VALID,918.292,VALID,0,VALID,99.7523,VALID,-0.0339617,VALID,20.9664,VALID,69,VALID,0.731957,
2004-01-11, 01:23:00,VALID,918.294,VALID,0,VALID,99.7536,VALID,-0.0849042,VALID,20.9635,VALID,68,VALID,0.773026,
2004-01-11, 01:24:00,VALID,918.285,VALID,0,VALID,99.7625,VALID,-0.0169808,VALID,20.9605,VALID,57,VALID,0.844308,
2004-01-11, 01:25:00,VALID,918.294,VALID,0,VALID,99.7307,VALID,-0.0339617,VALID,20.954,VALID,55,VALID,0.755273,
2004-01-11, 01:26:00,VALID,918.303,VALID,0,VALID,99.718,VALID,-0.0509425,VALID,20.9207,VALID,58,VALID,0.740189,
2004-01-11, 01:27:00,VALID,918.308,VALID,0,VALID,99.6989,VALID,-0.0509425,VALID,20.9252,VALID,63,VALID,0.61875,
2004-01-11, 01:28:00,VALID,918.299,VALID,0,VALID,99.6951,VALID,-0.0509425,VALID,20.9153,VALID,64,VALID,0.784489,
2004-01-11, 01:29:00,VALID,918.289,VALID,0,VALID,99.7116,VALID,-0.0509425,VALID,20.9091,VALID,47,VALID,0.643821,
2004-01-11, 01:30:00,VALID,918.277,VALID,0,VALID,99.7599,VALID,-0.0339617,VALID,20.9083,VALID,40,VALID,0.489462,
2004-01-11, 01:31:00,VALID,918.262,VALID,0,VALID,99.7625,VALID,-0.0339617,VALID,20.9148,VALID,44,VALID,0.128299,
2004-01-11, 01:32:00,VALID,918.257,VALID,0,VALID,99.7917,VALID,-0.0339617,VALID,20.9118,VALID,44,VALID,0.0277344,
2004-01-11, 01:33:00,VALID,918.231,VALID,0,VALID,99.8222,VALID,-0.0169808,VALID,20.9379,VALID,44,VALID,0.00277778,
2004-01-11, 01:34:00,VALID,918.207,VALID,0,VALID,99.8731,VALID,-0.0849042,VALID,20.9605,VALID,43,VALID,0.172061,
2004-01-11, 01:35:00,VALID,918.181,VALID,0,VALID,99.8884,VALID,-0.101885,VALID,20.9767,VALID,35,VALID,0.377096,
2004-01-11, 01:36:00,VALID,918.159,VALID,0,VALID,99.8973,VALID,-0.0679233,VALID,20.9729,VALID,32,VALID,0.454368,
2004-01-11, 01:37:00,VALID,918.163,VALID,0,VALID,99.8871,VALID,-0.0679233,VALID,20.9734,VALID,31,VALID,0.373728,
2004-01-11, 01:38:00,VALID,918.173,VALID,0,VALID,99.9062,VALID,-0.0339617,VALID,20.9893,VALID,31,VALID,0.0499238,
2004-01-11, 01:39:00,VALID,918.177,VALID,0,VALID,99.9278,VALID,-0.0509425,VALID,21.0224,VALID,31,VALID,0.0587798,
2004-01-11, 01:40:00,VALID,918.186,VALID,0,VALID,99.9189,VALID,-0.101885,VALID,20.9995,VALID,31,VALID,0.210574,
2004-01-11, 01:41:00,VALID,918.192,VALID,0,VALID,99.9125,VALID,-0.101885,VALID,20.999,VALID,31,VALID,0.00342988,
2004-01-11, 01:42:00,VALID,918.198,VALID,0,VALID,99.9176,VALID,-0.101885,VALID,20.9861,VALID,41,VALID,0.237645,
2004-01-11, 01:43:00,VALID,918.196,VALID,0,VALID,99.8934,VALID,-0.0849042,VALID,20.9702,VALID,155,VALID,0.296342,
2004-01-11, 01:44:00,VALID,918.18,VALID,0,VALID,99.8578,VALID,-0.101885,VALID,20.9444,VALID,155,VALID,0.369234,
2004-01-11, 01:45:00,VALID,918.176,VALID,0,VALID,99.8578,VALID,-0.0509425,VALID,20.9255,VALID,155,VALID,0.280185,
2004-01-11, 01:46:00,VALID,918.15,VALID,0,VALID,99.8527,VALID,-0.0679233,VALID,20.9021,VALID,155,VALID,0.192649,
2004-01-11, 01:47:00,VALID,918.128,VALID,0,VALID,99.8604,VALID,-0.0849042,VALID,20.9059,VALID,155,VALID,0.334413,
2004-01-11, 01:48:00,VALID,918.106,VALID,0,VALID,99.8616,VALID,-0.0509425,VALID,20.8989,VALID,155,VALID,0.227653,
2004-01-11, 01:49:00,VALID,918.072,VALID,0,VALID,99.8845,VALID,-0.0509425,VALID,20.9024,VALID,154,VALID,0.282848,
2004-01-11, 01:50:00,VALID,918.046,VALID,0,VALID,99.8998,VALID,-0.0509425,VALID,20.8959,VALID,154,VALID,0.047619,
2004-01-11, 01:51:00,VALID,918.017,VALID,0,VALID,99.896,VALID,-0.0509425,VALID,20.8989,VALID,154,VALID,0.153392,
2004-01-11, 01:52:00,VALID,917.981,VALID,0,VALID,99.9138,VALID,-0.0509425,VALID,20.883,VALID,154,VALID,0.0396205,
2004-01-11, 01:53:00,VALID,917.965,VALID,0,VALID,99.8973,VALID,-0.0679233,VALID,20.8798,VALID,154,VALID,0,
2004-01-11, 01:54:00,VALID,917.949,VALID,0,VALID,99.9227,VALID,-0.0339617,VALID,20.8792,VALID,154,VALID,0.105078,
2004-01-11, 01:55:00,VALID,917.945,VALID,0,VALID,99.9125,VALID,-0.0679233,VALID,20.8768,VALID,161,VALID,0.304129,
2004-01-11, 01:56:00,VALID,917.935,VALID,0,VALID,99.91,VALID,-0.0849042,VALID,20.8601,VALID,178,VALID,0.225,
2004-01-11, 01:57:00,VALID,917.921,VALID,0,VALID,99.9201,VALID,0.0169808,VALID,20.866,VALID,178,VALID,0.211124,
2004-01-11, 01:58:00,VALID,917.913,VALID,0,VALID,99.9341,VALID,0.0339617,VALID,20.8558,VALID,183,VALID,0.234738,
2004-01-11, 01:59:00,VALID,917.892,VALID,0,VALID,99.9341,VALID,0.0679233,VALID,20.8295,VALID,214,VALID,0.252362,
2004-01-11, 02:00:00,VALID,917.887,VALID,0,VALID,99.924,VALID,0.0509425,VALID,20.8233,VALID,213,VALID,0.269431,
2004-01-11, 02:01:00,VALID,917.868,VALID,0,VALID,99.9163,VALID,0.0509425,VALID,20.8036,VALID,213,VALID,0.24707,
2004-01-11, 02:02:00,VALID,917.859,VALID,0,VALID,99.9151,VALID,0.0679233,VALID,20.7808,VALID,213,VALID,0.00371094,
2004-01-11, 02:03:00,VALID,917.857,VALID,0,VALID,99.9265,VALID,0.0509425,VALID,20.7907,VALID,213,VALID,0.205673,
2004-01-11, 02:04:00,VALID,917.849,VALID,0,VALID,99.943,VALID,0.101885,VALID,20.7813,VALID,213,VALID,0.140811,
2004-01-11, 02:05:00,VALID,917.866,VALID,0,VALID,99.9583,VALID,0.0509425,VALID,20.7977,VALID,213,VALID,0.00186012,
2004-01-11, 02:06:00,VALID,917.872,VALID,0,VALID,99.9697,VALID,0.0339617,VALID,20.7845,VALID,213,VALID,0,
2004-01-11, 02:07:00,VALID,917.874,VALID,0,VALID,99.9929,VALID,0.0509425,VALID,20.7877,VALID,213,VALID,0,
2004-01-11, 02:08:00,VALID,917.859,VALID,0,VALID,100,VALID,0.0509425,VALID,20.7937,VALID,213,VALID,0,
2004-01-11, 02:09:00,VALID,917.848,VALID,0,VALID,99.999,VALID,0.101885,VALID,20.8101,VALID,213,VALID,0.017721,
2004-01-11, 02:10:00,VALID,917.831,VALID,0,VALID,100,VALID,0.0679233,VALID,20.8039,VALID,213,VALID,0.0254407,
2004-01-11, 02:11:00,VALID,917.814,VALID,0,VALID,100,VALID,0.0509425,VALID,20.8136,VALID,213,VALID,0,
2004-01-11, 02:12:00,VALID,917.785,VALID,0,VALID,100,VALID,0.0339617,VALID,20.8168,VALID,213,VALID,0,
2004-01-11, 02:13:00,VALID,917.772,VALID,0,VALID,100,VALID,0.0339617,VALID,20.8327,VALID,143,VALID,0.370722,
2004-01-11, 02:14:00,VALID,917.755,VALID,0,VALID,100,VALID,0.0679233,VALID,20.8389,VALID,82,VALID,0.502907,
2004-01-11, 02:15:00,VALID,917.75,VALID,0,VALID,100,VALID,0.0339617,VALID,20.8459,VALID,59,VALID,0.509411,
2004-01-11, 02:16:00,VALID,917.753,VALID,0,VALID,100,VALID,0,VALID,20.833,VALID,48,VALID,0.53218,
2004-01-11, 02:17:00,VALID,917.765,VALID,0,VALID,99.9934,VALID,0.0679233,VALID,20.7974,VALID,57,VALID,0.297805,
2004-01-11, 02:18:00,VALID,917.785,VALID,0,VALID,99.9761,VALID,0.0339617,VALID,20.7689,VALID,57,VALID,0.356707,
2004-01-11, 02:19:00,VALID,917.813,VALID,0,VALID,99.9786,VALID,0.0509425,VALID,20.7455,VALID,57,VALID,0.31392,
2004-01-11, 02:20:00,VALID,917.824,VALID,0,VALID,99.987,VALID,0.0169808,VALID,20.756,VALID,57,VALID,0.0686141,
2004-01-11, 02:21:00,VALID,917.842,VALID,0,VALID,100,VALID,0.0679233,VALID,20.7587,VALID,57,VALID,0,
2004-01-11, 02:22:00,VALID,917.833,VALID,0,VALID,99.999,VALID,0.0169808,VALID,20.7783,VALID,57,VALID,0,
2004-01-11, 02:23:00,VALID,917.83,VALID,0,VALID,100,VALID,0,VALID,20.788,VALID,57,VALID,0,
2004-01-11, 02:24:00,VALID,917.807,VALID,0,VALID,100,VALID,0.0679233,VALID,20.7977,VALID,57,VALID,0.0533537,
2004-01-11, 02:25:00,VALID,917.805,VALID,0,VALID,100,VALID,0.0509425,VALID,20.788,VALID,57,VALID,0.134629,
2004-01-11, 02:26:00,VALID,917.787,VALID,0,VALID,100,VALID,0.0339617,VALID,20.7818,VALID,57,VALID,0.00334821,
2004-01-11, 02:27:00,VALID,917.8,VALID,0,VALID,100,VALID,0.0509425,VALID,20.7721,VALID,57,VALID,0,
2004-01-11, 02:28:00,VALID,917.816,VALID,0,VALID,100,VALID,0.0679233,VALID,20.7724,VALID,57,VALID,0,
2004-01-11, 02:29:00,VALID,917.829,VALID,0,VALID,100,VALID,0.0849042,VALID,20.7719,VALID,57,VALID,0,
2004-01-11, 02:30:00,VALID,917.864,VALID,0,VALID,100,VALID,0.0509425,VALID,20.7654,VALID,57,VALID,0.0296148,
2004-01-11, 02:31:00,VALID,917.886,VALID,0,VALID,100,VALID,0.0679233,VALID,20.7557,VALID,57,VALID,0.131944,
2004-01-11, 02:32:00,VALID,917.901,VALID,0,VALID,100,VALID,0.0679233,VALID,20.7525,VALID,67,VALID,0.423564,
2004-01-11, 02:33:00,VALID,917.917,VALID,0,VALID,100,VALID,0.0169808,VALID,20.7326,VALID,152,VALID,0.669588,
2004-01-11, 02:34:00,VALID,917.915,VALID,0,VALID,100,VALID,0,VALID,20.7296,VALID,164,VALID,0.334162,
2004-01-11, 02:35:00,VALID,917.937,VALID,0,VALID,100,VALID,0.0339617,VALID,20.7334,VALID,137,VALID,0.227289,
2004-01-11, 02:36:00,VALID,917.945,VALID,0,VALID,100,VALID,0.0679233,VALID,20.7331,VALID,127,VALID,0.202035,
2004-01-11, 02:37:00,VALID,917.934,VALID,0,VALID,100,VALID,0.0169808,VALID,20.7334,VALID,121,VALID,0.737109,
2004-01-11, 02:38:00,VALID,917.926,VALID,0,VALID,100,VALID,-0.0849042,VALID,20.7352,VALID,128,VALID,0.638417,
2004-01-11, 02:39:00,VALID,917.902,VALID,0,VALID,100,VALID,-0.0849042,VALID,20.7344,VALID,117,VALID,0.691939,
2004-01-11, 02:40:00,VALID,917.871,VALID,0,VALID,100,VALID,-0.101885,VALID,20.7314,VALID,109,VALID,0.535937,
2004-01-11, 02:41:00,VALID,917.852,VALID,0,VALID,100,VALID,-0.0849042,VALID,20.7357,VALID,123,VALID,1.16034,
2004-01-11, 02:42:00,VALID,917.835,VALID,0,VALID,100,VALID,-0.0169808,VALID,20.725,VALID,135,VALID,0.904916,
2004-01-11, 02:43:00,VALID,917.826,VALID,0,VALID,100,VALID,0.0509425,VALID,20.7204,VALID,128,VALID,0.568229,
2004-01-11, 02:44:00,VALID,917.832,VALID,0,VALID,100,VALID,0,VALID,20.6911,VALID,125,VALID,0.788872,
2004-01-11, 02:45:00,VALID,917.846,VALID,0,VALID,100,VALID,0.0169808,VALID,20.6752,VALID,121,VALID,0.924716,
2004-01-11, 02:46:00,VALID,917.863,VALID,0,VALID,100,VALID,0.0169808,VALID,20.6725,VALID,131,VALID,0.709484,
2004-01-11, 02:47:00,VALID,917.863,VALID,0,VALID,100,VALID,0.0339617,VALID,20.6655,VALID,130,VALID,0.539063,
2004-01-11, 02:48:00,VALID,917.865,VALID,0,VALID,100,VALID,0,VALID,20.6459,VALID,139,VALID,0.769176,
2004-01-11, 02:49:00,VALID,917.852,VALID,0,VALID,100,VALID,0.0339617,VALID,20.64,VALID,144,VALID,0.835428,
2004-01-11, 02:50:00,VALID,917.83,VALID,0,VALID,100,VALID,0,VALID,20.6367,VALID,131,VALID,0.384028,
2004-01-11, 02:51:00,VALID,917.823,VALID,0,VALID,100,VALID,0.0339617,VALID,20.6335,VALID,141,VALID,0.579459,
2004-01-11, 02:52:00,VALID,917.81,VALID,0,VALID,100,VALID,0.0339617,VALID,20.6335,VALID,134,VALID,0.659624,
2004-01-11, 02:53:00,VALID,917.769,VALID,0,VALID,100,VALID,0.0339617,VALID,20.6362,VALID,138,VALID,0.966751,
2004-01-11, 02:54:00,VALID,917.749,VALID,0,VALID,100,VALID,0.0679233,VALID,20.6265,VALID,139,VALID,1.10411,
2004-01-11, 02:55:00,VALID,917.71,VALID,0,VALID,100,VALID,0.0169808,VALID,20.6131,VALID,138,VALID,1.47347,
2004-01-11, 02:56:00,VALID,917.676,VALID,0,VALID,100,VALID,0.0509425,VALID,20.6171,VALID,136,VALID,1.27915,
2004-01-11, 02:57:00,VALID,917.656,VALID,0,VALID,100,VALID,0.0169808,VALID,20.6146,VALID,136,VALID,1.14293,
2004-01-11, 02:58:00,VALID,917.627,VALID,0,VALID,100,VALID,0,VALID,20.6009,VALID,133,VALID,1.37329,
2004-01-11, 02:59:00,VALID,917.623,VALID,0,VALID,100,VALID,0.0339617,VALID,20.5746,VALID,122,VALID,0.858422,
2004-01-11, 03:00:00,VALID,917.614,VALID,0,VALID,100,VALID,0,VALID,20.5522,VALID,129,VALID,0.948946,
2004-01-11, 03:01:00,VALID,917.608,VALID,0,VALID,100,VALID,0.0169808,VALID,20.5431,VALID,129,VALID,0.789418,
2004-01-11, 03:02:00,VALID,917.614,VALID,0,VALID,100,VALID,0,VALID,20.5038,VALID,141,VALID,0.651786,
2004-01-11, 03:03:00,VALID,917.623,VALID,0,VALID,100,VALID,0.0679233,VALID,20.4618,VALID,120,VALID,0.679167,
2004-01-11, 03:04:00,VALID,917.647,VALID,0,VALID,99.9967,VALID,0.0169808,VALID,20.4494,VALID,150,VALID,0.542882,
2004-01-11, 03:05:00,VALID,917.658,VALID,0,VALID,99.999,VALID,0,VALID,20.4626,VALID,105,VALID,0.258185,
2004-01-11, 03:06:00,VALID,917.667,VALID,0,VALID,100,VALID,0.0169808,VALID,20.4422,VALID,137,VALID,0.233422,
2004-01-11, 03:07:00,VALID,917.669,VALID,0,VALID,99.9883,VALID,0.0339617,VALID,20.4626,VALID,162,VALID,0.162326,
2004-01-11, 03:08:00,VALID,917.668,VALID,0,VALID,99.9761,VALID,0,VALID,20.4392,VALID,150,VALID,0.600419,
2004-01-11, 03:09:00,VALID,917.673,VALID,0,VALID,99.9647,VALID,0,VALID,20.443,VALID,161,VALID,0.597486,
2004-01-11, 03:10:00,VALID,917.659,VALID,0,VALID,99.9507,VALID,0.0169808,VALID,20.4432,VALID,163,VALID,0.290777,
2004-01-11, 03:11:00,VALID,917.641,VALID,0,VALID,99.9252,VALID,0.0339617,VALID,20.4462,VALID,139,VALID,0.322027,
2004-01-11, 03:12:00,VALID,917.63,VALID,0,VALID,99.8756,VALID,-0.0339617,VALID,20.4345,VALID,108,VALID,0.643288,
2004-01-11, 03:13:00,VALID,917.616,VALID,0,VALID,99.8311,VALID,-0.0849042,VALID,20.4286,VALID,78,VALID,0.718395,
2004-01-11, 03:14:00,VALID,917.579,VALID,0,VALID,99.8235,VALID,-0.101885,VALID,20.4289,VALID,61,VALID,0.619606,
2004-01-11, 03:15:00,VALID,917.573,VALID,0,VALID,99.7968,VALID,-0.118866,VALID,20.4388,VALID,62,VALID,0.437128,
2004-01-11, 03:16:00,VALID,917.591,VALID,0,VALID,99.7052,VALID,-0.101885,VALID,20.402,VALID,78,VALID,0.614211,
2004-01-11, 03:17:00,VALID,917.583,VALID,0,VALID,99.6569,VALID,-0.118866,VALID,20.3926,VALID,99,VALID,0.388086,
2004-01-11, 03:18:00,VALID,917.589,VALID,0,VALID,99.5883,VALID,-0.101885,VALID,20.3764,VALID,134,VALID,1.03374,
2004-01-11, 03:19:00,VALID,917.602,VALID,0,VALID,99.3835,VALID,-0.0849042,VALID,20.374,VALID,136,VALID,1.36243,
2004-01-11, 03:20:00,VALID,917.62,VALID,0,VALID,99.1381,VALID,-0.101885,VALID,20.3479,VALID,136,VALID,1.02961,
2004-01-11, 03:21:00,VALID,917.623,VALID,0,VALID,98.9054,VALID,-0.0849042,VALID,20.3446,VALID,153,VALID,0.825893,
2004-01-11, 03:22:00,VALID,917.622,VALID,0,VALID,98.7121,VALID,-0.101885,VALID,20.361,VALID,142,VALID,0.926829,
2004-01-11, 03:23:00,VALID,917.603,VALID,0,VALID,98.5023,VALID,-0.0679233,VALID,20.3533,VALID,133,VALID,0.91276,
2004-01-11, 03:24:00,VALID,917.578,VALID,0,VALID,98.3713,VALID,-0.101885,VALID,20.3737,VALID,125,VALID,1.15625,
2004-01-11, 03:25:00,VALID,917.54,VALID,0,VALID,98.2925,VALID,-0.101885,VALID,20.3707,VALID,108,VALID,0.824023,
2004-01-11, 03:26:00,VALID,917.504,VALID,0,VALID,98.295,VALID,-0.0679233,VALID,20.3506,VALID,91,VALID,0.581364,
2004-01-11, 03:27:00,VALID,917.468,VALID,0,VALID,98.2874,VALID,-0.0169808,VALID,20.3468,VALID,110,VALID,0.729992,
2004-01-11, 03:28:00,VALID,917.445,VALID,0,VALID,98.2607,VALID,0.0339617,VALID,20.3264,VALID,99,VALID,0.473028,
2004-01-11, 03:29:00,VALID,917.43,VALID,0,VALID,98.2353,VALID,0.0169808,VALID,20.3202,VALID,107,VALID,0.588542,
2004-01-11, 03:30:00,VALID,917.438,VALID,0,VALID,98.1755,VALID,0.0849042,VALID,20.3138,VALID,135,VALID,0.673242,
2004-01-11, 03:31:00,VALID,917.442,VALID,0,VALID,98.1196,VALID,0.0169808,VALID,20.3071,VALID,105,VALID,0.445313,
2004-01-11, 03:32:00,VALID,917.456,VALID,0,VALID,98.0026,VALID,0.0509425,VALID,20.3073,VALID,113,VALID,0.56901,
2004-01-11, 03:33:00,VALID,917.461,VALID,0,VALID,97.9581,VALID,0.0509425,VALID,20.2974,VALID,142,VALID,0.656441,
2004-01-11, 03:34:00,VALID,917.456,VALID,0,VALID,97.911,VALID,0.0679233,VALID,20.3006,VALID,133,VALID,0.78125,